Location: Marseilles
(40.7010°N, 83.3930°W)
Time: 14:28:37
(UTC-04:00)

Cosmos 1459 Rocket - Visible Passes

Search period start: 20 August 2014 00:00
Search period end: 30 August 2014 00:00
Orbit: 939 x 1000 km, 83.0° (Epoch: 19 August)

Date Brightness Start Highest point End Pass type
(mag) Time Alt. Az. Time Alt. Az. Time Alt. Az.
20 Aug 4.7 21:20:08 10° N 21:25:52 34° ENE 21:30:21 15° SE visible
20 Aug 5.3 23:05:21 10° NNW 23:11:04 36° W 23:14:55 19° SW visible
21 Aug 4.1 21:43:19 10° N 21:49:36 59° E 21:54:08 19° SSE visible
21 Aug 6.1 23:29:46 10° NW 23:34:15 21° W 23:38:42 10° SW visible
22 Aug 4.1 22:06:47 10° N 22:13:10 81° W 22:17:58 18° S visible
22 Aug 6.6 23:55:47 10° WNW 23:57:17 11° WNW 23:58:47 10° W visible
23 Aug 5.0 20:45:51 10° NNE 20:51:07 27° ENE 20:56:19 10° SE visible
23 Aug 4.9 22:30:33 10° NNW 22:36:35 47° W 22:41:51 13° SSW visible
24 Aug 4.4 21:08:51 10° N 21:14:56 46° ENE 21:20:55 10° SSE visible
24 Aug 5.8 22:54:42 10° NNW 22:59:50 27° W 23:04:55 10° SW visible
25 Aug 4.0 21:32:11 10° N 21:38:34 79° E 21:44:50 10° S visible
25 Aug 6.5 23:19:37 10° NW 23:22:56 15° W 23:26:13 10° WSW visible
26 Aug 4.5 21:55:49 10° NNW 22:02:03 61° W 22:08:10 10° S visible
27 Aug 4.7 20:34:27 10° N 20:40:13 36° ENE 20:45:53 10° SE visible
27 Aug 5.5 22:19:46 10° NNW 22:25:22 34° W 22:30:54 10° SSW visible
28 Aug 4.1 20:57:39 10° N 21:03:56 62° E 21:10:06 10° SSE visible
28 Aug 6.3 22:44:14 10° NW 22:48:32 20° W 22:52:48 10° SW visible
29 Aug 4.2 21:21:09 10° N 21:27:29 78° W 21:33:42 10° S visible
29 Aug 6.9 23:11:07 10° WNW 23:11:33 10° WNW 23:12:00 10° W visible
